Flag for Germany Weather past 2 weeks in Greifswald, Mecklenburg-Western Pomerania, Germany

Now
55 °F

Passing clouds.


Feels Like: 55 °F
Forecast: 55 / 68 °F
Wind: 1 mph from North

Location: Greifswald

Current Time: Sep 2, 2014 at 3:51:55 AM

Latest Report: Sep 2, 2014 at 3:00 AM


Visibility: 10 mi

Pressure: 30.15 "Hg

Humidity: 96%

Dew point: 54 °F

Location of GreifswaldLocation

Historic Weather in Greifswald — Graph

°F

Greifswald temperature yesterday

Maximum temperature yesterday: 63 °F (at 11:00 AM)
Minimum temperature yesterday: 58 °F (at 9:00 PM)
Average temperature yesterday: 60 °F

Past Weeks' High & Low Weather Summary

 TemperatureHumidityPressure
High71 °F (Aug 28, 4:00 PM)99% (Aug 27, 7:00 AM)30.15 "Hg (Aug 27, 7:00 AM)
Low44 °F (Aug 26, 6:00 AM)35% (Aug 28, 4:00 PM)29.47 "Hg (Aug 18, 3:00 PM)
Average58 °F78%29.88 "Hg
* Reported Aug 18 3:00 AM — Sep 2 3:00 AM, Greifswald, Weather by CustomWeather, © 2014

Note: Actual official high and low records may vary slightly from our data, if they occured in-between our weather recording intervals... More about our weather records

Advertising

Greifswald weather history for previous 24 hours

 ConditionsComfort  
Time TempWeatherWind HumidityBarometerVisibility
3:00 AM
Sep 2
55 °FPassing clouds.1 mph96%30.15 "Hg10 mi
2:00 AM55 °FOvercast.1 mph97%30.15 "Hg11 mi
1:00 AM56 °FOvercast.1 mph95%30.14 "Hg12 mi
12:00 AM58 °FOvercast.2 mph95%30.14 "Hg9 mi
10:00 PM
Sep 1
58 °FLight rain. Overcast.6 mph91%30.12 "Hg16 mi
9:00 PM58 °FLight rain. Overcast.6 mph93%30.11 "Hg9 mi
8:00 PM58 °FLight rain. Overcast.6 mph94%30.10 "Hg9 mi
7:00 PM59 °FLight rain. Overcast.7 mph94%30.09 "Hg6 mi
6:00 PM60 °FLight rain. Low clouds.6 mph94%30.08 "Hg6 mi
4:00 PM61 °FLight rain. Low clouds.7 mph95%30.08 "Hg6 mi
3:00 PM62 °FLight rain. Low clouds.6 mph93%30.07 "Hg4 mi
2:00 PM62 °FLight rain. Overcast.6 mph89%30.06 "Hg7 mi
1:00 PM63 °FOvercast.6 mph90%30.05 "Hg7 mi
12:00 PM63 °FOvercast.6 mph90%30.04 "Hg9 mi
11:00 AM63 °FLow clouds.5 mph93%30.03 "Hg9 mi
10:00 AM62 °FLight rain. Low clouds.5 mph95%30.02 "Hg5 mi
9:00 AM62 °FLight rain. Low clouds.5 mph96%30.00 "Hg6 mi
8:00 AM61 °FRain. Low clouds.6 mph98%30.00 "Hg3 mi
7:00 AM60 °FLight rain. Low clouds.2 mph98%29.98 "Hg4 mi
6:00 AM59 °FOvercast.1 mph98%29.97 "Hg7 mi
4:00 AM58 °FLow clouds.2 mph97%29.95 "Hg7 mi
3:00 AM58 °FLight rain. Overcast.2 mph95%29.94 "Hg7 mi
Weather by CustomWeather, © 2014

See weather overviewHow to use our weather pages